Simultaneous Nadir Overpasses (SNOs) Predictions

Prediction of SNOs between GOES-16 and NOAA-19 Satellite Orbit:

Table of predicted SNOs for the next 14.0 days since TLE Epoch: 4/27/2017
Index Date Time (GOES-16) GOES-16 Lat,Lon NOAA-19 Lat,Lon Distance(km) Time Diff (sec)
1 04/27/2017 21:26:37 0.00, -89.48 0.00, -93.69 468.61 0
2 04/28/2017 21:13:34 0.00, -89.48 -0.29, -90.69 138.76 80
3 04/29/2017 21:04:48 0.00, -89.48 0.36, -87.91 179.21 80
4 04/30/2017 20:53:21 -0.00, -89.48 1.02, -85.12 497.23 80
5 05/02/2017 09:26:17 0.00, -89.51 0.80, -93.02 400.78 80
6 05/03/2017 09:14:50 0.00, -89.51 0.16, -90.24 82.60 80
7 05/04/2017 09:00:44 0.00, -89.51 -0.48, -87.45 235.76 80
8 05/06/2017 21:22:28 -0.00, -89.50 -0.70, -92.62 356.22 80
9 05/07/2017 21:11:00 0.00, -89.51 -0.10, -89.83 37.27 80
10 05/08/2017 21:02:14 0.00, -89.52 0.56, -87.05 281.96 80
11 05/11/2017 09:23:44 -0.01, -89.58 0.58, -92.17 296.00 80




NCC Satellite Simultaneous Nadir Overpasses (SNOs) Prediction Service
